World > North America > United States > Mississippi > Artesia  

Artesia, MS Hourly Weather Updates

Feedback E-mail the Weather

Quick Clicks

Artesia, MS Weather Maps

°F °C°F °C
Artesia Weather Map
UTC Time: 4/22/2024, 22:45
Your Time:

Artesia, MS Regional Weather

Expires:202404222300;;206164
ASUS44 KJAN 222210
RWRMS 

MISSISSIPPI HOURLY WEATHER ROUNDUP
NATIONAL WEATHER SERVICE JACKSON MS
500 PM CDT MON APR 22 2024

NOTE: "FAIR: INDICATES FEW OR NO CLOUDS BELOW 12,000 FEET WITH NO
SIGNIFICANT WEATHER AND/OR OBSTRUCTIONS TO VISIBILITY.


MSZ003>006-009-014>017-022>024-029>033-037>039-222300-
NORTHEAST MISSISSIPPI
  
CITY           SKY/WX    TMP DP  RH WIND       PRES   REMARKS
ABERDEEN       SUNNY     68  34  28 CALM      30.18S                  
COLUMBUS AFB   SUNNY     69  35  28 CALM      30.13F                  
CORINTH        SUNNY     66  32  28 VRB5      30.15F                  
GOLDN TRIANGLE SUNNY     67  35  30 CALM      30.18S                  
IUKA             N/A     66  32  27 CALM      30.15F                  
LOUISVILLE     SUNNY     66  32  28 CALM      30.19S                  
STARKVILLE     SUNNY     66  34  30 CALM      30.16S                  
TUPELO         SUNNY     69  31  24 CALM      30.15F                  
$$


SKY/WX - Weather  TMP - Temperature  DP - Dew Point  RH - Humidity
WIND - Wind Direction/Speed PRES - Barometric Pressure VSB - Visibility
WCI - Wind Chill Index E13G22 Wind - East Wind 13 mph/Gusts of 22 mph

Trending Headlines

Trending Entertainment Headlines

Artesia Radar Loop

Use the map search tool if you want to place a location marker on the radar map...

Artesia Quick Facts

National Two Day Weather Forecast


E-mail the Artesia Weather Forecast

Voice your opinion or tell us about page issues...